Location: Hohenfelde
(53.8441°N, 9.6220°E)
Time: 12:35:11
(UTC+00:00)

Cosmos 2242 Rocket - Pass Details

Date: 14 July 2020
Orbit: 618 x 652 km, 82.5° (Epoch: 12 August)

Event Time Altitude Azimuth Distance (km) Brightness Sun altitude
Rises 00:01:10 0° 349° (N) 2,986 8.5 -14.2°
Reaches altitude 10° 00:03:28 10° 352° (N) 2,068 7.5 -14.1°
Maximum altitude 00:08:03 71° 77° (ENE) 688 3.8 -14.0°
Enters shadow 00:11:26 18° 159° (SSE) 1,590 5.2 -13.9°
